• In Belgium
  • List of Countries
  • For 7 days
  • Water Temperature
  • Satellite Maps
  • Weather Map
  • Weather Widgets
  • user-avatar
    Login

    Hourly Weather Annaba

    Today, 19 August, Saturday

    Time Temperature Precipitation Wind Pressure Humidity
    00:00 +30°C° 0 mm 1 mps 759 mmHg 55%
    01:00 +30°C° 0 mm 1 mps 759 mmHg 53%
    02:00 +30°C° 0 mm 1 mps 759 mmHg 53%
    03:00 +30°C° 0 mm 1 mps 759 mmHg 53%
    04:00 +30°C° 0 mm 1 mps 759 mmHg 53%
    05:00 +30°C° 0 mm 1 mps 759 mmHg 53%
    06:00 +30°C° 0 mm 1 mps 759 mmHg 53%
    07:00 +31°C° 0 mm 1 mps 759 mmHg 52%
    08:00 +32°C° 0 mm 2 mps 759 mmHg 47%
    09:00 +35°C° 0 mm 2 mps 759 mmHg 43%
    10:00 +37°C° 0 mm 3 mps 759 mmHg 39%
    11:00 +37°C° 0 mm 3 mps 759 mmHg 38%
    12:00 +38°C° 0 mm 4 mps 759 mmHg 36%
    13:00 +40°C° 0 mm 4 mps 759 mmHg 35%
    14:00 +38°C° 0 mm 4 mps 759 mmHg 35%
    15:00 +38°C° 0 mm 4 mps 759 mmHg 36%
    16:00 +38°C° 0 mm 4 mps 759 mmHg 37%
    17:00 +36°C° 0 mm 4 mps 759 mmHg 41%
    18:00 +35°C° 0 mm 3 mps 760 mmHg 46%
    19:00 +33°C° 0 mm 3 mps 760 mmHg 50%
    20:00 +31°C° 0 mm 3 mps 760 mmHg 57%
    21:00 +30°C° 0 mm 2 mps 761 mmHg 63%
    22:00 +29°C° 0 mm 2 mps 761 mmHg 69%
    23:00 +28°C° 0 mm 2 mps 761 mmHg 73%

    Tomorrow, 20 August, Sunday

    Time Temperature Precipitation Wind Pressure Humidity
    00:00 +28°C° 0 mm 1 mps 762 mmHg 76%
    01:00 +27°C° 0 mm 1 mps 762 mmHg 79%
    02:00 +27°C° 0 mm 1 mps 761 mmHg 80%
    03:00 +27°C° 0 mm 1 mps 761 mmHg 81%
    04:00 +26°C° 0 mm 2 mps 761 mmHg 82%
    05:00 +27°C° 0 mm 2 mps 761 mmHg 81%
    06:00 +27°C° 0 mm 2 mps 761 mmHg 79%
    07:00 +27°C° 0 mm 2 mps 761 mmHg 78%
    08:00 +29°C° 0 mm 2 mps 762 mmHg 69%
    09:00 +30°C° 0 mm 3 mps 762 mmHg 60%
    10:00 +33°C° 0 mm 3 mps 762 mmHg 51%
    11:00 +34°C° 0 mm 3 mps 762 mmHg 47%
    12:00 +35°C° 0 mm 4 mps 762 mmHg 43%
    13:00 +36°C° 0 mm 4 mps 761 mmHg 39%
    14:00 +35°C° 0 mm 5 mps 761 mmHg 39%
    15:00 +35°C° 0 mm 5 mps 761 mmHg 40%
    16:00 +34°C° 0 mm 5 mps 761 mmHg 40%
    17:00 +33°C° 0 mm 5 mps 761 mmHg 43%
    18:00 +32°C° 0 mm 4 mps 761 mmHg 47%
    19:00 +29°C° 0 mm 4 mps 761 mmHg 51%
    20:00 +29°C° 0 mm 3 mps 762 mmHg 55%
    21:00 +28°C° 0 mm 3 mps 762 mmHg 59%
    22:00 +27°C° 0 mm 3 mps 762 mmHg 63%
    23:00 +27°C° 0 mm 3 mps 762 mmHg 65%

    Day after tomorrow, 21 August, Monday

    Time Temperature Precipitation Wind Pressure Humidity
    00:00 +26°C° 0 mm 3 mps 762 mmHg 66%
    01:00 +26°C° 0 mm 3 mps 762 mmHg 68%
    02:00 +26°C° 0 mm 3 mps 762 mmHg 68%
    03:00 +25°C° 0 mm 3 mps 761 mmHg 69%
    04:00 +25°C° 0 mm 3 mps 761 mmHg 69%
    05:00 +25°C° 0 mm 3 mps 761 mmHg 68%
    06:00 +25°C° 0 mm 3 mps 761 mmHg 67%
    07:00 +26°C° 0 mm 3 mps 761 mmHg 65%
    08:00 +27°C° 0 mm 3 mps 761 mmHg 58%
    09:00 +29°C° 0 mm 4 mps 761 mmHg 50%
    10:00 +30°C° 0 mm 4 mps 761 mmHg 42%
    11:00 +32°C° 0 mm 4 mps 761 mmHg 39%
    12:00 +33°C° 0 mm 4 mps 761 mmHg 36%
    13:00 +34°C° 0 mm 5 mps 761 mmHg 32%
    14:00 +34°C° 0 mm 5 mps 760 mmHg 35%
    15:00 +33°C° 0 mm 5 mps 760 mmHg 38%
    16:00 +33°C° 0 mm 5 mps 760 mmHg 40%
    17:00 +32°C° 0 mm 4 mps 760 mmHg 46%
    18:00 +30°C° 0 mm 3 mps 760 mmHg 52%
    19:00 +28°C° 0 mm 2 mps 760 mmHg 57%
    20:00 +28°C° 0 mm 2 mps 761 mmHg 62%
    21:00 +27°C° 0 mm 1 mps 761 mmHg 66%
    22:00 +26°C° 0 mm 1 mps 761 mmHg 70%
    23:00 +25°C° 0 mm 1 mps 761 mmHg 72%

    22 August, Tuesday

    Time Temperature Precipitation Wind Pressure Humidity
    00:00 +25°C° 0 mm 1 mps 761 mmHg 74%
    01:00 +25°C° 0 mm 1 mps 761 mmHg 75%
    02:00 +24°C° 0 mm 1 mps 761 mmHg 76%
    03:00 +24°C° 0 mm 1 mps 760 mmHg 76%
    04:00 +24°C° 0 mm 1 mps 760 mmHg 76%
    05:00 +24°C° 0 mm 1 mps 760 mmHg 73%
    06:00 +25°C° 0 mm 1 mps 761 mmHg 70%
    07:00 +25°C° 0 mm 1 mps 761 mmHg 68%
    08:00 +27°C° 0 mm 1 mps 761 mmHg 58%
    09:00 +29°C° 0 mm 1 mps 761 mmHg 48%
    10:00 +32°C° 0 mm 1 mps 761 mmHg 39%
    11:00 +33°C° 0 mm 1 mps 761 mmHg 36%
    12:00 +35°C° 0 mm 2 mps 760 mmHg 33%
    13:00 +36°C° 0 mm 3 mps 760 mmHg 30%
    14:00 +36°C° 0 mm 4 mps 760 mmHg 32%
    15:00 +36°C° 0 mm 4 mps 759 mmHg 35%
    16:00 +35°C° 0 mm 5 mps 759 mmHg 37%
    17:00 +34°C° 0 mm 4 mps 759 mmHg 44%
    18:00 +32°C° 0 mm 4 mps 759 mmHg 50%
    19:00 +30°C° 0 mm 4 mps 759 mmHg 57%
    20:00 +29°C° 0 mm 3 mps 760 mmHg 61%
    21:00 +28°C° 0 mm 3 mps 760 mmHg 66%
    22:00 +27°C° 0 mm 2 mps 760 mmHg 70%
    23:00 +27°C° 0 mm 2 mps 760 mmHg 70%

    23 August, Wednesday

    Time Temperature Precipitation Wind Pressure Humidity
    00:00 +27°C° 0 mm 2 mps 760 mmHg 71%
    01:00 +27°C° 0 mm 2 mps 760 mmHg 71%
    02:00 +26°C° 0 mm 1 mps 760 mmHg 71%
    03:00 +26°C° 0 mm 1 mps 759 mmHg 72%
    04:00 +26°C° 0 mm 1 mps 759 mmHg 72%
    05:00 +26°C° 0 mm 1 mps 759 mmHg 70%
    06:00 +27°C° 0 mm 2 mps 760 mmHg 68%
    07:00 +27°C° 0 mm 2 mps 760 mmHg 66%
    08:00 +29°C° 0 mm 2 mps 760 mmHg 58%
    09:00 +32°C° 0 mm 2 mps 760 mmHg 50%
    10:00 +35°C° 0 mm 2 mps 760 mmHg 42%
    11:00 +36°C° 0 mm 3 mps 760 mmHg 39%
    12:00 +37°C° 0 mm 3 mps 760 mmHg 35%
    13:00 +38°C° 0 mm 4 mps 760 mmHg 32%
    14:00 +37°C° 0 mm 5 mps 759 mmHg 33%
    15:00 +37°C° 0 mm 5 mps 759 mmHg 34%
    16:00 +38°C° 0 mm 6 mps 759 mmHg 35%
    17:00 +36°C° 0 mm 5 mps 759 mmHg 39%
    18:00 +34°C° 0 mm 5 mps 759 mmHg 44%
    19:00 +33°C° 0 mm 4 mps 759 mmHg 49%
    20:00 +32°C° 0 mm 4 mps 760 mmHg 52%
    21:00 +30°C° 0 mm 3 mps 760 mmHg 56%
    22:00 +29°C° 0 mm 3 mps 760 mmHg 60%
    23:00 +29°C° 0 mm 3 mps 760 mmHg 60%

    24 August, Thursday

    Time Temperature Precipitation Wind Pressure Humidity
    00:00 +28°C° 0 mm 2 mps 760 mmHg 61%
    01:00 +28°C° 0 mm 2 mps 760 mmHg 62%
    02:00 +28°C° 0 mm 2 mps 760 mmHg 62%
    03:00 +28°C° 0 mm 2 mps 759 mmHg 62%
    04:00 +27°C° 0 mm 2 mps 759 mmHg 62%
    05:00 +28°C° 0 mm 2 mps 760 mmHg 61%
    06:00 +28°C° 0 mm 2 mps 760 mmHg 60%
    07:00 +29°C° 0 mm 2 mps 760 mmHg 59%
    08:00 +31°C° 0 mm 2 mps 760 mmHg 53%
    09:00 +34°C° 0 mm 3 mps 760 mmHg 46%
    10:00 +36°C° 0 mm 3 mps 761 mmHg 40%
    11:00 +37°C° 0 mm 3 mps 760 mmHg 36%
    12:00 +38°C° 0 mm 4 mps 760 mmHg 33%
    13:00 +40°C° 0 mm 5 mps 760 mmHg 30%
    14:00 +40°C° 0 mm 5 mps 759 mmHg 31%
    15:00 +40°C° 0 mm 6 mps 759 mmHg 32%
    16:00 +40°C° 0 mm 6 mps 759 mmHg 33%
    17:00 +38°C° 0 mm 6 mps 759 mmHg 37%
    18:00 +36°C° 0 mm 6 mps 759 mmHg 41%
    19:00 +34°C° 0 mm 5 mps 759 mmHg 45%
    20:00 +34°C° 0 mm 5 mps 759 mmHg 48%
    21:00 +33°C° 0 mm 4 mps 760 mmHg 52%
    22:00 +32°C° 0 mm 4 mps 760 mmHg 55%
    23:00 +30°C° 0 mm 3 mps 760 mmHg 54%
    Show more